Temp
54 54 54 54 54 54 54 54 54 54 54 54 55 55 55 55 55 46 45 46 44 40 42 44 45 40 44 44 38 39 41 42 41 38 39 40 42 50 49 51 52 49 48 46 45 47 51 61 64 63 60 62 64 65
53 53 53 54 54 54 53 53 53 53 54 54 54 54 54 55 55 51 43 49 49 42 41 46 47 49 47 48 43 40 39 40 41 39 39 40 41 44 44 50 50 51 57 54 52 53 57 58 57 60 58 59 60 61
53 53 53 53 53 53 53 53 53 53 54 54 54 54 52 54 54 51 41 44 45 41 39 39 40 49 52 51 54 40 43 49 45 49 45 39 37 44 42 45 47 51 53 52 54 55 56 59 61 62 63 63 65 66
53 53 53 53 53 52 53 52 52 53 54 53 52 52 53 53 53 53 42 43 44 42 35 37 50 45 53 52 52 53 49 49 47 48 43 41 39 47 45 46 45 51 54 51 50 54 59 60 63 66 66 67 68 69
52 52 53 53 53 52 53 52 52 53 53 53 53 51 53 53 52 48 43 43 49 41 35 36 45 48 50 51 51 52 49 45 44 43 44 44 45 45 47 45 45 48 51 51 50 55 56 56 60 67 67 66 66 66
52 52 53 53 53 53 53 53 53 52 53 53 53 53 53 52 51 41 36 43 43 44 38 35 43 43 48 50 52 50 47 45 45 46 46 49 50 48 43 43 50 51 51 52 53 57 59 59 62 66 64 65 65 62
52 52 53 53 53 53 53 52 53 52 52 52 52 52 52 52 42 38 36 46 50 48 40 37 40 46 50 51 51 48 47 47 47 47 46 48 48 47 44 43 51 52 53 55 61 64 59 57 56 61 64 64 65 65
52 52 52 53 53 53 53 52 52 52 52 52 52 52 52 52 47 41 45 51 51 44 43 36 39 42 48 45 44 49 46 47 47 46 49 47 48 47 45 49 52 55 57 57 58 61 59 56 59 60 62 62 62 62
52 52 52 53 53 53 53 53 53 52 51 51 52 52 44 41 40 42 54 55 51 44 38 39 37 38 49 48 48 46 48 42 48 43 44 47 47 44 49 50 53 54 55 54 58 59 60 58 57 59 60 60 59 60
52 52 52 53 53 53 53 53 53 52 52 52 47 44 41 45 54 53 48 43 42 44 41 36 42 38 45 48 47 45 47 43 40 44 48 44 46 50 52 53 55 55 56 59 56 54 55 55 57 57 58 60 60 61
53 53 53 53 53 53 53 53 53 52 51 45 42 41 46 53 48 45 41 38 38 37 41 42 41 40 49 43 45 48 44 45 40 43 43 44 44 50 54 54 55 56 58 58 57 57 57 58 58 58 59 60 59 59
53 53 53 53 53 53 53 53 53 47 44 47 46 48 46 44 42 39 38 41 39 37 44 42 44 44 45 47 45 46 44 45 40 47 44 42 47 51 54 57 57 59 60 60 60 58 58 58 57 57 56 56 56 57
52 52 52 52 53 53 54 53 53 52 51 48 45 42 42 42 34 34 32 33 35 43 46 46 44 46 46 47 46 46 45 42 50 45 43 44 48 51 52 56 56 58 59 58 57 58 57 56 57 56 54 55 56 56
52 52 52 52 53 53 53 53 52 51 46 43 41 33 34 34 37 36 38 39 44 45 45 46 45 44 46 44 46 43 48 50 44 42 42 47 48 50 52 55 57 55 56 56 55 56 55 55 54 54 53 53 54 54
52 52 52 53 53 53 52 52 53 47 47 43 43 36 38 43 44 45 46 46 47 47 45 44 45 45 45 46 46 47 46 41 42 42 45 47 48 49 49 52 53 54 53 53 54 54 53 53 52 51 51 52 52 53
52 51 49 53 52 52 52 50 48 47 48 44 41 38 41 41 42 43 44 42 47 45 46 46 45 45 42 44 44 40 43 39 42 45 47 47 48 48 48 50 51 53 53 52 53 53 52 51 51 50 51 50 51 51
51 45 53 52 51 52 51 47 47 46 42 42 38 39 38 39 42 43 42 42 48 44 41 44 41 40 44 41 41 42 40 42 45 46 47 47 46 48 49 50 52 53 52 52 52 52 51 51 50 50 49 49 50 51
44 47 51 51 51 48 46 45 45 43 39 38 36 42 42 42 43 42 41 42 43 42 43 42 43 40 41 40 39 43 44 44 44 45 47 49 50 48 49 49 52 53 52 52 52 51 51 51 50 48 49 49 51 52
48 49 51 53 51 44 42 44 43 37 38 41 42 43 43 42 41 42 42 43 42 43 44 44 43 41 41 44 44 46 47 48 48 49 51 52 52 52 49 50 52 52 51 51 51 51 51 52 52 51 50 50 50 50
51 51 53 53 52 42 41 40 44 42 40 42 42 43 43 43 44 43 43 43 41 43 45 43 43 45 46 47 49 49 49 50 49 49 49 50 50 50 49 50 51 51 51 51 52 49 52 52 53 52 52 51 52 53
48 49 51 48 45 43 40 41 43 41 41 40 43 42 42 43 42 42 44 46 44 42 42 45 46 48 50 50 50 50 50 50 49 49 48 48 51 52 52 51 52 52 52 52 52 52 50 52 53 54 53 53 53 54
44 52 44 45 42 42 40 40 38 38 37 40 41 40 40 42 43 43 45 43 43 46 47 47 48 50 50 51 52 52 52 52 52 51 49 50 53 54 53 54 54 54 54 55 54 54 54 55 54 55 54 55 52 54
49 47 43 42 41 38 38 41 40 39 39 40 41 42 42 41 43 46 42 42 43 45 46 46 48 50 49 50 51 51 53 53 52 52 52 51 52 53 54 55 55 55 55 57 56 55 55 50 53 55 55 55 55 55
50 42 43 41 41 38 42 41 40 40 40 41 41 41 42 42 44 44 42 43 45 45 45 46 46 47 50 48 46 48 50 52 51 52 51 53 53 52 53 54 55 55 55 56 55 55 55 56 51 57 57 57 57 57
40 41 42 38 42 43 43 44 43 43 42 42 43 43 44 45 42 42 42 43 45 46 46 47 48 47 47 49 49 49 50 51 51 52 53 53 55 53 56 54 54 53 53 55 54 55 55 55 55 56 56 57 58 58
39 45 41 45 44 43 43 43 44 44 45 45 44 44 44 47 45 43 46 47 46 49 49 48 47 50 52 51 51 51 50 50 53 53 53 51 53 52 51 51 53 55 55 54 55 56 57 57 57 58 57 57 50 57
42 47 47 46 46 46 45 46 46 46 46 44 43 44 44 40 43 47 50 51 51 52 50 50 53 51 51 52 54 54 54 54 53 52 52 55 54 53 53 51 50 52 56 58 57 57 56 57 57 57 57 57 57 58
48 47 46 48 48 47 46 45 44 42 43 45 46 44 43 45 44 50 51 51 53 54 57 56 53 51 50 49 52 54 54 54 55 54 55 55 53 55 54 55 55 44 54 55 54 57 57 57 57 56 56 55 54 55
47 48 48 45 47 49 47 46 46 48 50 47 43 43 46 50 51 52 52 52 52 54 51 51 51 50 51 50 50 49 49 48 50 47 46 45 46 48 50 50 52 52 52 52 46 46 50 52 53 54 53 53 54 54
48 48 47 46 45 43 46 49 49 51 51 50 51 51 49 48 49 55 54 51 52 48 48 47 47 48 45 45 46 47 47 46 46 46 45 45 46 47 47 48 48 49 49 50 50 51 46 50 49 52 51 52 52 52
49 48 48 46 45 46 48 49 49 51 52 50 50 48 47 49 50 51 51 53 53 51 48 46 46 45 45 45 43 44 44 47 46 46 46 46 46 46 46 46 46 47 48 48 47 47 47 47 47 46 46 46 47 46
48 48 47 45 45 48 49 46 46 48 50 48 47 49 49 49 47 49 52 50 48 46 45 45 45 44 45 44 45 45 42 45 46 45 45 46 45 45 45 45 46 48 47 47 46 46 45 44 44 44 44 44 44 44
47 47 46 45 44 45 46 47 45 45 49 48 48 47 47 47 46 48 52 50 47 46 46 46 46 45 44 44 44 45 43 45 43 39 38 38 38 40 43 44 46 46 45 44 44 44 43 42 42 42 42 42 43 43
MSLP
1021.22 1020.72 1020.20 1019.70 1019.18 1018.64 1018.13 1017.65 1017.23 1016.86 1016.52 1016.27 1016.06 1015.86 1015.73 1015.62 1015.53 1016.04 1016.03 1015.93 1016.14 1015.44 1014.81 1014.61 1014.03 1013.71 1013.34 1013.30 1013.05 1012.31 1011.29 1010.22 1009.07 1008.26 1007.56 1006.30 1004.51 1002.02 1001.30 1000.30 1000.05 1000.61 1001.79 1002.49 1002.43 1001.45 1000.08 998.75 998.44 998.56 998.08 997.14 996.60 997.19
1021.02 1020.49 1019.92 1019.31 1018.68 1018.08 1017.50 1016.97 1016.49 1016.09 1015.77 1015.50 1015.29 1015.16 1015.14 1015.08 1015.08 1015.38 1015.82 1015.33 1015.30 1015.39 1014.42 1013.67 1013.16 1012.64 1012.72 1012.62 1012.92 1012.78 1011.90 1011.12 1009.95 1008.89 1008.29 1007.56 1005.92 1003.22 1001.57 1000.71 999.74 999.61 999.00 999.93 1000.47 999.76 998.90 998.86 998.66 998.34 998.17 998.32 997.99 997.98
1020.81 1020.20 1019.54 1018.84 1018.12 1017.43 1016.85 1016.20 1015.61 1015.16 1014.77 1014.49 1014.22 1014.04 1014.43 1014.45 1014.60 1014.94 1015.44 1015.28 1015.40 1014.94 1013.60 1012.63 1011.54 1010.36 1010.70 1011.07 1011.66 1012.02 1011.29 1010.51 1010.09 1009.48 1008.71 1008.29 1006.80 1004.42 1002.68 1001.18 1000.10 999.33 999.01 999.58 999.94 999.89 999.92 999.30 998.73 998.14 997.97 998.72 998.74 999.45
1020.47 1019.81 1019.15 1018.43 1017.72 1017.06 1016.38 1015.68 1015.18 1014.65 1014.09 1013.83 1013.63 1013.62 1013.80 1013.96 1014.13 1014.34 1014.97 1014.89 1015.04 1014.46 1013.56 1010.69 1009.75 1009.63 1008.76 1009.28 1009.88 1010.20 1010.34 1010.29 1010.27 1009.94 1009.05 1008.38 1007.35 1004.56 1003.10 1001.98 1001.17 999.58 999.48 999.64 1000.33 999.72 999.80 1000.22 999.48 997.90 998.17 999.54 999.49 1000.68
1020.14 1019.49 1018.80 1018.05 1017.42 1016.70 1015.84 1014.91 1014.64 1014.34 1013.93 1013.49 1013.40 1013.52 1013.58 1013.64 1013.72 1013.85 1014.16 1014.00 1013.88 1014.42 1013.23 1010.92 1009.50 1007.26 1007.35 1007.97 1008.32 1008.92 1009.94 1010.36 1010.66 1010.23 1008.63 1007.91 1006.40 1004.93 1003.12 1002.21 1001.00 1000.00 999.36 999.30 999.18 998.73 999.03 1000.06 999.71 999.23 998.73 999.58 1000.48 1002.61
1019.76 1019.13 1018.33 1017.72 1017.12 1016.36 1015.55 1014.74 1014.12 1014.03 1013.85 1013.55 1013.31 1013.27 1013.29 1013.33 1013.42 1013.96 1013.84 1013.51 1013.40 1013.64 1013.46 1011.38 1008.58 1007.10 1006.49 1006.50 1007.54 1008.28 1009.36 1010.06 1010.18 1008.84 1008.02 1007.00 1005.62 1005.17 1003.81 1002.11 1000.22 999.87 999.48 999.04 998.66 998.72 999.45 1000.03 1000.32 1000.20 999.59 1000.90 1000.14 1001.56
1019.36 1018.71 1018.01 1017.46 1016.85 1016.14 1015.45 1014.65 1014.01 1013.76 1013.60 1013.43 1013.27 1013.14 1013.06 1013.12 1013.52 1013.61 1013.14 1012.68 1012.70 1013.02 1012.60 1011.03 1008.82 1007.20 1006.31 1006.70 1007.49 1008.42 1009.05 1009.15 1008.76 1008.15 1007.12 1006.28 1005.17 1004.81 1003.45 1002.17 1000.47 999.89 999.32 998.96 998.79 998.38 1000.30 1000.67 1001.32 1001.44 1000.96 1001.41 1001.36 1003.74
1019.01 1018.46 1017.81 1017.19 1016.65 1016.05 1015.39 1014.71 1014.18 1013.80 1013.52 1013.23 1012.99 1012.81 1012.72 1012.87 1013.10 1012.89 1011.75 1011.83 1012.50 1012.79 1012.26 1010.82 1008.63 1007.37 1006.50 1006.69 1007.16 1007.58 1008.05 1008.14 1007.72 1007.04 1006.25 1005.56 1004.55 1003.82 1002.56 1001.40 1001.05 1000.47 999.93 999.90 999.91 999.93 1000.38 1001.48 1001.88 1002.06 1002.29 1003.28 1004.28 1004.27
1018.76 1018.18 1017.48 1016.88 1016.35 1015.75 1015.15 1014.62 1014.13 1013.55 1013.27 1013.09 1012.81 1012.54 1012.85 1012.93 1012.81 1011.83 1011.13 1011.08 1011.78 1012.45 1011.40 1009.86 1008.45 1006.70 1005.92 1005.89 1006.46 1007.31 1007.36 1006.98 1006.42 1006.36 1005.70 1005.16 1003.60 1002.99 1002.07 1001.82 1001.67 1001.14 1000.86 1001.26 1001.05 1001.28 1001.94 1002.24 1002.83 1003.02 1003.18 1003.65 1003.78 1003.98
1018.32 1017.60 1016.98 1016.48 1015.92 1015.29 1014.66 1014.12 1013.62 1012.95 1012.76 1012.58 1012.65 1012.45 1012.18 1011.57 1011.07 1010.98 1011.30 1011.32 1011.64 1011.12 1010.52 1009.15 1008.44 1007.02 1005.84 1005.00 1005.07 1006.03 1005.98 1005.76 1005.60 1005.63 1005.35 1004.64 1003.98 1003.19 1002.34 1002.26 1001.84 1001.26 1001.65 1001.55 1001.90 1002.67 1003.03 1003.50 1003.59 1003.75 1004.02 1004.30 1004.82 1005.50
1017.78 1017.22 1016.54 1015.96 1015.43 1014.87 1014.18 1013.54 1013.03 1012.69 1012.32 1012.65 1012.40 1012.02 1011.03 1010.66 1010.60 1010.70 1010.68 1010.82 1010.48 1010.20 1009.28 1008.18 1007.64 1006.80 1004.92 1005.07 1004.74 1004.74 1004.94 1004.67 1005.06 1005.22 1004.59 1003.96 1003.91 1003.65 1002.86 1002.42 1002.40 1002.27 1002.18 1002.16 1002.32 1003.06 1003.61 1003.99 1004.40 1004.46 1005.26 1005.02 1005.20 1005.86
1017.50 1016.83 1016.30 1015.54 1014.92 1014.23 1013.48 1013.05 1012.57 1012.30 1012.14 1012.13 1012.08 1011.80 1011.34 1010.62 1010.20 1010.27 1009.90 1009.75 1009.52 1008.74 1007.46 1007.04 1006.33 1006.30 1005.16 1005.00 1005.00 1004.55 1004.06 1003.54 1004.27 1004.33 1004.01 1004.89 1005.33 1004.49 1003.65 1003.20 1003.22 1003.14 1002.93 1003.15 1003.26 1003.95 1004.72 1005.32 1005.46 1005.69 1005.97 1006.23 1006.47 1006.65
1017.26 1016.55 1015.77 1015.02 1014.36 1013.80 1013.10 1012.47 1011.66 1011.36 1011.44 1011.77 1011.57 1011.32 1011.25 1010.61 1009.93 1009.35 1009.08 1009.33 1008.86 1007.62 1006.72 1006.14 1005.66 1005.34 1004.97 1004.48 1004.16 1003.70 1002.93 1003.06 1003.35 1004.24 1005.05 1005.56 1005.35 1004.99 1004.52 1004.13 1004.21 1004.04 1004.06 1004.41 1004.99 1005.42 1005.90 1006.30 1006.50 1006.57 1006.88 1007.16 1007.35 1007.52
1016.71 1016.04 1015.40 1014.60 1013.97 1013.22 1012.35 1011.64 1011.16 1011.02 1011.31 1011.46 1011.60 1011.65 1011.58 1010.77 1010.06 1009.12 1008.89 1008.35 1007.88 1007.16 1006.23 1005.96 1005.46 1005.13 1004.78 1004.53 1004.08 1003.51 1002.95 1002.78 1003.72 1004.51 1005.67 1006.50 1006.22 1006.06 1005.70 1005.16 1004.92 1005.34 1005.44 1005.62 1006.02 1006.46 1006.77 1007.10 1007.48 1007.50 1007.60 1007.94 1007.98 1008.00
1016.46 1015.43 1014.80 1014.36 1013.73 1012.89 1011.98 1011.09 1010.75 1010.98 1011.12 1011.43 1011.77 1011.94 1011.59 1011.10 1010.18 1009.29 1008.77 1008.16 1007.54 1006.84 1006.61 1005.53 1004.73 1004.37 1004.31 1004.22 1003.88 1003.14 1003.37 1004.61 1005.53 1006.10 1006.87 1007.61 1007.52 1007.35 1006.94 1006.70 1006.40 1006.44 1006.68 1006.83 1007.05 1007.30 1007.62 1007.90 1008.12 1008.12 1008.11 1008.20 1008.11 1008.10
1016.06 1015.08 1014.64 1014.18 1013.45 1012.42 1011.70 1011.05 1010.78 1010.93 1011.13 1011.61 1012.11 1012.36 1011.91 1010.88 1009.92 1009.08 1008.47 1008.55 1007.65 1006.79 1006.17 1005.81 1005.34 1004.75 1004.96 1004.97 1005.08 1005.99 1006.07 1006.92 1007.59 1007.62 1008.08 1007.74 1007.50 1007.38 1007.22 1006.75 1006.82 1007.00 1007.31 1007.60 1007.87 1008.07 1008.28 1008.58 1008.69 1008.83 1008.89 1008.89 1008.78 1008.77
1015.93 1015.44 1014.68 1014.14 1013.26 1012.22 1011.51 1011.26 1011.23 1011.58 1011.99 1012.55 1013.06 1012.98 1012.72 1011.96 1011.25 1010.46 1009.75 1008.61 1007.61 1007.25 1006.94 1006.22 1006.36 1006.67 1006.23 1006.85 1007.67 1008.04 1008.43 1008.66 1008.65 1008.54 1008.36 1008.36 1008.31 1008.21 1008.14 1007.91 1007.78 1007.75 1007.96 1008.29 1008.49 1008.58 1008.79 1008.98 1009.05 1009.12 1009.25 1009.14 1008.98 1008.91
1016.16 1015.31 1014.82 1014.30 1013.52 1012.73 1012.24 1012.09 1012.48 1013.01 1013.60 1013.75 1013.72 1013.00 1012.52 1012.10 1011.52 1010.81 1010.22 1009.18 1008.47 1007.88 1007.43 1007.91 1007.89 1008.40 1008.87 1009.11 1009.47 1009.40 1009.46 1009.25 1009.03 1008.88 1008.68 1008.40 1008.19 1008.35 1008.24 1008.24 1008.15 1008.22 1008.50 1008.71 1008.62 1008.83 1009.07 1009.18 1009.39 1009.56 1009.41 1009.30 1009.23 1009.15
1015.90 1015.34 1014.71 1014.19 1013.80 1013.91 1013.88 1013.76 1014.05 1014.57 1014.57 1014.25 1013.69 1013.02 1012.49 1011.92 1011.34 1010.91 1010.33 1009.54 1009.12 1008.68 1008.31 1008.70 1009.39 1009.88 1010.05 1010.06 1010.07 1009.66 1009.30 1009.20 1009.12 1008.90 1008.49 1008.05 1007.95 1007.95 1008.20 1008.38 1008.41 1008.40 1008.56 1008.62 1008.81 1009.01 1009.07 1009.08 1009.18 1009.20 1009.32 1009.46 1009.52 1009.55
1015.20 1014.88 1014.52 1013.97 1013.58 1014.08 1014.66 1015.11 1015.04 1015.14 1015.04 1014.64 1014.04 1013.15 1012.63 1012.04 1011.32 1010.76 1010.23 1009.85 1009.82 1009.71 1010.13 1010.47 1010.74 1010.61 1010.41 1010.45 1010.30 1010.02 1009.83 1009.59 1009.37 1008.98 1008.68 1008.42 1008.16 1008.09 1008.23 1008.58 1008.66 1008.69 1008.72 1008.84 1008.93 1009.00 1009.04 1008.99 1008.98 1009.05 1009.21 1009.42 1009.48 1009.34
1015.24 1014.88 1014.45 1014.30 1014.25 1014.55 1015.51 1015.98 1015.89 1015.91 1015.46 1015.05 1014.13 1013.62 1013.04 1012.02 1011.70 1011.39 1011.12 1010.58 1010.60 1011.42 1011.52 1011.42 1011.04 1010.67 1010.36 1010.23 1010.12 1009.83 1009.98 1009.78 1009.79 1009.64 1009.40 1008.89 1008.43 1008.27 1008.35 1008.58 1008.67 1008.72 1008.82 1009.00 1009.22 1009.24 1009.12 1009.05 1008.83 1008.90 1009.10 1009.12 1009.14 1009.21
1015.72 1015.26 1015.17 1014.86 1014.98 1015.09 1015.67 1016.23 1016.32 1016.05 1015.83 1015.14 1014.24 1013.82 1013.33 1012.97 1012.59 1012.00 1011.81 1011.42 1011.80 1011.80 1011.49 1011.38 1011.23 1010.58 1010.30 1010.26 1010.29 1010.08 1009.78 1009.46 1009.56 1009.40 1009.13 1008.90 1008.82 1008.73 1008.87 1008.87 1008.92 1009.04 1008.87 1008.94 1008.97 1008.97 1008.80 1008.72 1008.69 1008.57 1008.63 1008.72 1008.84 1008.88
1015.85 1015.80 1015.66 1015.54 1015.44 1015.53 1016.41 1016.03 1015.81 1015.76 1015.64 1015.20 1014.46 1014.16 1013.75 1013.29 1012.83 1012.01 1012.20 1012.33 1012.27 1011.90 1011.56 1011.22 1010.82 1010.52 1010.60 1010.47 1010.28 1010.03 1009.76 1009.61 1009.64 1009.49 1009.35 1009.36 1009.26 1009.00 1008.87 1008.67 1008.74 1008.79 1008.66 1008.42 1008.44 1008.52 1008.46 1008.29 1008.37 1008.40 1008.37 1008.31 1008.32 1008.39
1016.08 1016.23 1015.94 1015.91 1015.92 1016.03 1015.80 1015.77 1015.68 1015.51 1015.17 1015.04 1014.87 1014.58 1014.22 1013.94 1013.49 1013.25 1013.58 1013.33 1012.90 1012.11 1011.64 1011.44 1010.88 1010.59 1010.50 1010.41 1010.48 1010.50 1010.19 1009.97 1009.86 1009.61 1009.64 1009.34 1009.41 1009.37 1009.40 1009.22 1008.94 1008.72 1008.57 1008.39 1008.36 1008.26 1008.20 1008.12 1007.99 1007.94 1007.98 1008.16 1008.28 1008.26
1016.50 1016.60 1016.25 1015.80 1015.58 1015.44 1015.44 1015.30 1015.18 1015.02 1015.06 1014.94 1014.64 1014.38 1014.26 1013.96 1014.29 1014.43 1014.52 1014.15 1013.60 1013.26 1012.92 1012.36 1011.69 1011.58 1011.56 1011.35 1011.12 1010.89 1010.51 1010.30 1010.40 1010.40 1010.12 1009.96 1009.78 1009.47 1009.52 1009.44 1009.16 1009.12 1008.79 1008.53 1008.50 1008.36 1008.31 1008.20 1008.20 1008.20 1008.11 1008.03 1008.06 1008.03
1016.25 1015.87 1015.86 1015.39 1015.23 1015.32 1015.14 1015.02 1014.88 1014.68 1014.58 1014.54 1014.36 1014.24 1014.15 1014.35 1014.75 1014.86 1014.57 1014.32 1014.18 1013.81 1013.46 1013.25 1013.07 1012.61 1012.42 1012.18 1011.97 1011.75 1011.48 1010.91 1010.44 1010.78 1011.03 1010.75 1010.30 1010.21 1010.46 1010.28 1010.03 1009.83 1009.42 1009.32 1009.19 1009.08 1008.89 1008.56 1008.24 1008.06 1007.98 1007.91 1007.96 1007.80
1016.16 1015.73 1015.39 1015.25 1015.20 1015.00 1014.74 1014.41 1014.25 1014.43 1014.51 1014.68 1014.67 1014.46 1014.37 1014.75 1014.98 1014.99 1014.44 1014.34 1014.30 1014.04 1013.73 1013.52 1013.12 1013.32 1013.35 1013.14 1012.74 1012.40 1012.05 1011.65 1011.53 1011.86 1011.80 1011.34 1011.28 1011.42 1011.27 1011.30 1011.38 1011.29 1010.57 1009.74 1009.69 1009.41 1009.37 1009.16 1008.87 1008.57 1008.30 1007.88 1007.72 1007.53
1015.93 1015.73 1015.66 1015.36 1015.02 1015.04 1015.07 1015.07 1015.24 1015.37 1015.21 1015.03 1014.75 1014.63 1014.72 1014.95 1015.22 1014.96 1014.88 1014.91 1014.63 1014.15 1013.96 1013.90 1013.87 1013.85 1013.80 1013.68 1013.43 1013.01 1012.60 1012.37 1012.02 1011.86 1011.70 1011.78 1011.90 1011.93 1011.95 1011.74 1011.46 1011.07 1010.66 1010.34 1010.14 1009.67 1009.52 1009.22 1008.91 1008.61 1008.34 1008.13 1008.05 1007.90
1015.79 1015.58 1015.59 1015.58 1015.39 1015.44 1015.79 1015.93 1015.99 1015.98 1015.77 1015.47 1015.28 1015.06 1015.16 1015.68 1016.17 1015.72 1015.66 1015.57 1015.32 1015.23 1015.28 1015.14 1014.97 1014.58 1014.38 1014.34 1014.19 1014.04 1013.79 1013.47 1013.16 1013.19 1013.31 1013.35 1013.22 1012.80 1012.69 1012.38 1012.02 1011.66 1011.33 1010.95 1010.53 1010.38 1010.11 1009.77 1009.57 1009.26 1009.00 1008.78 1008.56 1008.33
1015.86 1015.65 1015.75 1015.84 1015.99 1016.28 1016.37 1016.27 1016.31 1016.27 1015.94 1015.78 1015.58 1015.67 1015.63 1016.47 1016.86 1016.56 1015.98 1016.19 1016.42 1016.46 1016.47 1016.36 1016.09 1015.77 1015.80 1015.56 1015.42 1015.12 1014.92 1014.75 1014.57 1014.53 1014.44 1014.41 1014.32 1013.96 1013.52 1013.10 1012.74 1012.41 1012.02 1011.63 1011.31 1010.96 1010.56 1010.24 1009.99 1009.73 1009.56 1009.36 1009.20 1009.05
1015.60 1015.53 1015.69 1015.99 1016.19 1016.27 1016.28 1016.35 1016.43 1016.45 1016.44 1016.72 1016.96 1016.71 1017.27 1017.67 1017.63 1017.57 1017.34 1017.37 1017.38 1017.18 1016.98 1016.86 1016.79 1016.79 1016.65 1016.44 1016.20 1015.98 1015.69 1015.40 1015.27 1015.10 1014.96 1014.77 1014.55 1014.34 1014.07 1013.77 1013.44 1013.11 1012.82 1012.54 1012.25 1011.98 1011.68 1011.36 1011.13 1010.87 1010.62 1010.40 1010.18 1009.95
1015.64 1015.67 1015.82 1016.02 1016.19 1016.16 1016.13 1016.40 1016.73 1016.94 1017.04 1017.30 1017.64 1017.78 1017.47 1017.53 1017.96 1018.10 1018.22 1017.97 1017.76 1017.81 1017.85 1017.66 1017.56 1017.52 1017.37 1017.11 1016.76 1016.58 1016.34 1016.08 1015.78 1015.56 1015.23 1015.06 1015.00 1014.86 1014.57 1014.26 1013.98 1013.76 1013.52 1013.28 1013.04 1012.83 1012.58 1012.33 1012.09 1011.83 1011.54 1011.33 1011.14 1010.92
1015.42 1015.51 1015.69 1015.90 1016.04 1016.14 1016.25 1016.33 1016.58 1016.88 1016.93 1017.16 1017.56 1017.67 1017.73 1017.88 1017.86 1018.18 1018.34 1018.40 1018.48 1018.44 1018.38 1018.21 1018.06 1017.93 1017.66 1017.38 1017.21 1016.93 1016.61 1016.34 1016.04 1015.70 1015.56 1015.44 1015.35 1015.19 1014.99 1014.78 1014.55 1014.33 1014.10 1013.92 1013.73 1013.52 1013.30 1013.07 1012.84 1012.58 1012.30 1012.04 1011.81 1011.62
Wind_Speed
19 20 19 19 19 19 19 19 19 18 18 17 17 16 15 13 10 3 3 4 3 4 6 9 9 7 7 7 6 5 9 2 4 3 2 4 4 7 4 6 10 10 9 6 3 4 8 2 1 10 4 7 3 7
18 19 20 20 21 21 22 22 21 21 21 18 20 18 16 15 12 3 3 2 4 5 5 7 14 16 17 16 7 5 5 3 4 2 2 3 5 3 2 9 1 5 8 9 10 8 2 3 4 5 5 2 4 6
19 20 20 22 23 21 20 19 19 21 19 19 21 20 17 14 12 5 3 2 1 3 7 7 13 22 17 20 14 6 4 6 2 3 0 3 6 2 3 6 2 1 1 5 6 2 3 1 3 5 11 12 14 14
20 20 21 22 20 19 20 22 17 16 13 11 8 6 10 8 8 6 3 3 2 2 5 8 3 7 9 15 21 21 17 2 1 6 2 2 4 2 4 4 3 3 4 8 4 4 9 7 0 18 22 16 21 17
20 20 20 21 21 21 24 21 12 12 14 8 4 7 8 10 9 4 3 5 5 3 4 10 13 15 15 15 18 21 17 10 1 5 3 3 4 3 3 1 4 1 5 5 7 9 5 4 0 12 24 21 18 13
19 19 20 20 21 21 23 22 11 10 11 11 6 6 8 6 3 3 4 1 6 5 4 6 4 6 5 9 13 15 10 3 3 3 3 4 6 2 4 3 4 3 4 3 4 7 12 9 6 6 21 15 21 17
20 20 20 20 20 21 19 20 13 8 8 8 7 6 6 4 3 3 5 2 6 4 4 5 3 4 2 12 4 4 5 3 5 3 5 4 4 3 3 4 6 6 2 7 13 23 15 8 7 8 13 15 17 15
19 19 19 20 20 20 18 16 16 13 8 8 8 8 6 3 1 4 5 14 5 2 3 4 4 2 5 3 4 3 3 4 5 4 3 4 3 4 4 1 5 2 9 12 13 11 16 9 9 9 10 10 7 7
19 19 18 18 18 18 17 16 16 13 9 10 11 3 3 2 1 4 6 2 6 3 4 3 3 1 0 3 5 2 4 5 1 2 3 2 3 3 2 2 2 3 6 11 14 14 11 13 9 8 9 8 9 9
19 19 18 18 17 17 16 16 15 17 14 9 2 0 2 4 4 3 3 2 3 4 3 4 4 4 1 1 4 5 4 4 2 0 3 2 1 5 5 3 1 7 8 10 14 10 7 9 8 8 8 7 7 4
20 19 19 18 17 17 17 18 16 13 2 1 2 3 3 7 2 2 3 2 2 4 4 4 4 4 2 1 2 3 3 3 3 2 2 2 2 5 9 6 5 6 5 8 10 8 8 10 10 11 7 8 9 6
21 21 20 18 17 17 19 21 16 2 3 3 2 3 3 2 3 3 3 3 4 3 3 2 3 4 4 3 4 3 4 2 4 4 4 4 2 8 7 7 7 5 11 12 12 11 9 7 6 8 6 6 5 5
22 22 22 20 16 16 22 19 17 11 6 1 2 2 3 2 3 2 2 2 3 4 3 2 4 2 3 2 2 3 1 1 8 3 4 3 6 8 9 6 9 9 12 13 11 9 9 8 7 6 7 5 5 5
23 24 23 18 13 23 22 22 15 1 2 2 4 5 3 3 2 4 4 3 4 4 7 3 4 2 1 3 3 3 1 3 4 3 5 3 8 9 9 8 8 8 9 10 9 8 8 8 6 6 6 4 3 4
23 26 23 7 23 24 24 23 6 2 1 3 1 6 4 5 6 8 6 4 3 3 3 5 3 3 3 4 2 3 6 6 5 4 3 2 5 5 7 5 6 8 6 7 5 6 6 5 5 5 5 4 4 4
24 21 4 22 25 26 24 7 2 1 2 3 5 5 8 6 9 9 8 2 3 8 2 1 3 3 5 4 7 7 4 6 4 3 2 4 5 6 7 10 8 5 6 6 5 5 5 5 4 3 2 4 4 3
18 3 14 24 26 25 11 3 3 5 4 5 4 1 3 5 5 6 5 5 7 1 2 3 7 5 3 6 6 6 5 3 3 3 3 4 5 5 5 5 5 4 5 5 4 5 5 4 4 4 5 5 5 4
4 6 20 22 17 7 4 5 4 5 6 3 3 7 5 4 5 5 4 4 5 5 4 4 2 8 5 4 3 3 2 3 3 3 3 4 3 4 4 4 1 3 5 5 5 4 3 4 5 3 3 3 3 4
9 13 17 17 7 2 4 6 4 4 2 3 4 3 3 5 4 5 4 5 1 1 3 5 6 3 3 2 2 3 3 2 2 3 3 5 2 4 4 3 3 3 4 4 4 3 2 1 1 1 1 2 2 1
11 10 12 12 4 3 4 4 2 2 4 4 3 6 6 4 6 4 4 5 4 4 7 4 3 2 1 1 1 2 2 5 4 4 5 5 4 3 3 3 2 4 4 4 3 4 3 3 2 2 2 2 2 1
7 6 9 5 4 4 4 3 3 1 3 3 3 5 5 5 5 6 6 5 5 3 3 2 3 3 3 2 2 1 1 2 3 1 2 3 4 3 4 4 4 3 3 2 1 1 2 3 3 2 2 3 3 3
3 9 4 4 4 4 4 1 1 2 2 4 4 3 3 4 5 5 4 5 3 2 1 1 1 3 3 3 2 2 4 7 4 2 3 2 4 3 3 2 2 2 2 2 2 3 4 3 3 3 2 2 3 3
6 4 3 4 3 5 2 2 4 5 5 6 4 6 5 5 4 5 4 1 2 3 3 3 4 3 3 5 3 4 3 3 4 4 4 3 3 3 3 4 4 3 4 3 2 2 3 4 2 2 2 2 2 2
2 4 4 4 3 3 1 3 1 3 2 4 3 4 5 4 6 6 5 5 5 5 6 6 2 2 3 4 5 4 4 3 3 3 2 1 3 3 0 2 3 3 3 3 2 2 2 3 4 2 2 2 1 2
4 6 3 6 0 4 4 5 3 3 2 2 3 3 3 3 5 5 4 5 6 6 6 6 5 5 4 3 3 4 6 4 4 6 7 4 1 0 4 2 4 5 4 5 5 5 4 4 3 3 4 4 4 4
5 2 3 3 2 1 1 2 1 2 1 1 2 2 3 3 4 4 4 4 3 4 4 5 4 5 8 6 6 6 6 5 3 8 6 7 8 5 4 5 6 7 6 4 4 5 6 6 5 6 5 2 4 3
5 5 3 1 2 2 3 2 1 1 3 4 3 1 2 4 2 3 4 4 3 4 3 3 5 5 4 5 5 5 4 5 5 3 1 6 8 7 7 6 7 4 6 5 5 6 5 5 5 5 6 5 4 4
2 1 5 7 3 3 3 4 5 5 4 3 2 3 3 2 2 2 2 4 4 3 6 7 6 4 4 4 4 6 5 6 4 3 2 4 5 6 8 5 4 10 8 7 7 5 5 5 5 5 5 4 3 4
3 2 2 5 4 4 3 3 4 4 6 1 3 3 3 5 7 4 4 3 4 6 7 7 7 5 6 5 6 6 7 7 7 8 8 5 5 5 8 6 6 6 6 6 8 7 7 5 6 6 6 5 5 5
3 1 2 2 3 4 2 2 1 1 2 3 3 5 7 5 6 5 8 7 6 4 3 3 4 6 5 5 4 6 6 5 5 4 3 4 4 5 5 6 6 6 6 7 7 8 11 7 8 7 8 7 6 6
1 2 2 2 1 1 1 0 2 1 2 5 6 7 5 2 3 4 4 4 3 5 5 5 5 5 6 6 4 4 4 4 5 5 4 2 3 4 5 5 5 5 6 7 7 8 8 8 8 8 9 10 11 10
2 1 1 1 1 2 1 3 2 3 2 3 3 1 2 1 3 4 5 3 4 6 5 5 5 5 5 4 3 3 3 4 4 5 6 3 3 3 3 4 4 5 6 7 7 8 9 10 8 10 9 10 10 11
2 1 1 1 1 1 1 3 2 2 2 2 3 2 1 1 2 3 2 4 3 3 4 3 2 3 4 5 6 6 7 5 7 7 7 6 6 6 4 4 4 5 6 5 6 7 9 10 9 10 10 9 9 10
Wind_Direction
326 327 325 321 318 315 309 306 303 298 294 287 284 283 278 278 278 157 257 198 222 242 251 260 250 259 261 253 260 318 330 272 313 63 115 296 262 216 172 198 177 150 138 183 129 149 255 72 269 161 227 306 228 133
329 327 324 320 315 312 308 303 298 295 291 292 284 270 273 263 269 199 246 204 214 251 266 282 262 250 233 231 221 220 257 333 258 47 24 332 296 304 170 222 349 182 180 178 174 205 192 224 225 278 206 272 339 107
329 327 324 322 318 314 317 321 310 300 297 285 283 273 249 253 259 217 208 223 191 266 271 241 241 246 237 228 211 227 253 218 241 311 287 242 264 278 221 239 152 252 133 120 129 74 335 316 155 106 88 99 90 98
330 327 326 326 330 326 323 323 315 323 313 304 317 230 245 252 271 252 175 196 209 293 271 273 283 256 218 215 211 213 228 244 58 336 248 234 269 227 264 259 257 211 147 145 59 81 78 343 67 113 92 104 102 105
327 327 326 327 331 325 326 323 313 320 337 321 297 250 256 269 282 263 193 206 192 199 287 293 296 271 229 215 201 210 215 232 40 282 228 244 257 311 248 276 258 238 176 141 195 184 108 157 94 131 115 114 99 84
324 327 325 326 328 329 332 337 326 301 316 344 345 259 263 270 133 65 327 215 203 167 275 284 284 290 310 174 184 180 174 141 206 245 237 232 248 274 291 263 264 258 258 234 146 98 101 101 77 81 104 104 97 92
321 323 323 326 328 331 337 345 343 326 304 310 319 311 280 219 118 166 196 206 149 158 253 285 264 274 63 126 111 109 133 187 221 251 221 232 251 198 242 250 324 338 55 120 125 115 76 25 89 56 75 80 96 140
319 322 323 325 328 329 330 340 349 357 339 310 298 289 281 233 288 297 250 214 155 275 257 265 256 254 184 161 115 121 158 208 189 230 249 232 274 226 254 353 341 9 94 79 82 81 102 119 83 70 87 111 132 121
320 321 320 320 321 320 320 323 323 311 308 310 318 313 64 81 216 242 288 310 164 208 284 278 292 247 315 146 107 182 187 220 89 205 240 311 284 261 307 139 180 3 83 126 106 96 99 95 97 86 88 74 78 57
320 316 315 316 316 313 310 307 302 301 307 290 298 328 244 207 247 295 212 186 188 208 232 236 231 268 317 195 174 118 237 185 144 231 303 261 282 247 357 334 173 95 113 110 91 85 87 73 79 73 79 96 94 102
325 323 316 311 310 310 308 313 314 315 9 20 256 230 256 309 162 195 219 198 185 233 219 231 221 283 298 70 1 74 220 178 119 240 302 339 44 349 338 57 77 92 88 86 96 90 89 111 115 98 83 71 80 73
325 325 324 314 304 304 309 321 320 306 207 184 280 290 296 261 207 232 204 211 221 266 244 234 209 210 275 149 170 228 217 147 117 173 4 82 313 333 1 50 68 86 89 77 85 94 83 85 101 105 94 82 70 70
326 327 327 320 307 307 317 322 316 282 265 188 194 257 326 40 312 274 240 195 255 229 232 264 309 147 295 52 215 235 54 48 127 137 122 3 344 2 359 37 65 61 76 82 77 78 87 83 66 70 82 73 84 77
323 325 327 319 322 325 324 328 331 143 118 19 20 353 35 346 300 271 276 245 250 264 289 337 254 203 118 64 254 313 233 127 78 60 73 36 5 5 6 19 76 76 78 81 76 73 71 72 70 64 66 47 48 52
322 321 320 320 332 327 328 329 334 152 55 54 31 12 354 314 266 306 318 301 269 289 307 281 254 192 142 166 260 7 46 56 33 51 65 34 349 355 17 11 64 71 76 79 82 84 80 69 61 51 32 29 37 31
323 322 314 338 330 325 327 328 346 66 58 51 50 351 325 307 331 342 343 326 314 325 288 280 343 354 20 34 24 21 43 41 31 10 339 319 346 18 6 14 21 55 87 95 91 90 82 70 72 72 53 45 43 32
321 258 329 328 325 322 328 14 22 28 47 26 351 262 285 265 286 315 309 299 322 305 17 358 34 359 327 46 27 11 21 342 322 306 339 315 307 315 327 347 8 78 100 105 101 85 85 79 72 60 42 7 16 14
253 295 317 321 328 324 326 27 45 53 32 345 347 315 312 255 286 301 307 302 348 358 13 65 94 32 35 35 22 335 276 275 264 270 276 278 261 261 252 248 304 172 138 131 112 107 99 94 77 71 59 21 24 19
284 299 309 320 331 6 6 14 39 44 310 289 278 278 290 281 258 262 282 304 274 282 54 34 48 30 30 28 308 308 343 339 333 310 329 344 334 199 204 217 230 151 135 126 124 133 146 152 121 152 106 68 79 358
310 306 326 334 1 51 52 6 30 30 358 307 300 321 304 287 306 312 326 1 23 47 34 47 30 348 334 331 310 304 358 5 341 17 9 8 16 88 139 169 155 127 103 80 68 46 16 352 323 288 264 255 276 322
335 320 344 10 28 60 87 358 31 18 317 325 307 326 303 324 357 355 1 337 52 50 74 5 315 278 281 259 225 327 103 351 19 12 289 323 355 41 86 96 94 78 80 82 72 302 225 250 264 245 221 235 240 256
290 342 348 356 45 27 83 2 168 285 1 281 324 339 346 355 335 353 312 34 37 324 243 202 220 273 311 349 347 304 306 319 326 293 317 303 35 33 61 116 110 120 113 162 216 261 264 254 275 281 257 229 203 233
327 9 357 15 31 41 312 358 38 4 28 336 349 5 349 344 327 328 36 346 282 289 282 283 275 274 280 314 323 311 310 311 336 342 346 352 327 324 320 330 8 342 319 313 316 289 280 305 259 247 292 223 183 191
4 22 22 16 45 354 276 13 44 3 334 13 18 5 343 322 332 27 13 350 306 315 16 354 329 67 41 24 23 4 349 337 338 34 35 163 26 9 141 294 330 327 281 282 273 277 276 309 298 289 236 248 282 291
34 340 39 349 89 21 11 352 6 24 19 351 14 8 345 18 27 13 350 311 340 353 349 338 35 38 60 24 15 6 356 26 39 37 6 354 309 23 36 35 53 36 357 27 16 16 6 3 346 290 280 263 256 264
57 275 81 339 307 11 343 334 271 258 196 242 253 345 17 67 35 5 309 309 322 329 348 7 355 30 30 16 23 6 340 328 61 60 18 8 26 47 41 21 26 15 6 20 13 6 359 357 13 17 8 323 249 251
29 349 337 197 315 296 294 272 169 13 18 14 357 18 87 71 41 316 324 351 352 340 339 342 63 57 38 19 358 347 344 2 64 111 287 55 49 33 40 44 16 323 310 13 15 17 3 345 343 343 328 317 308 312
292 342 352 313 353 41 349 22 23 12 342 343 305 41 84 118 188 282 334 344 342 2 41 42 32 34 38 7 3 10 7 352 12 14 13 33 36 38 17 5 2 349 358 357 347 345 338 325 329 328 335 338 344 357
327 319 16 358 356 45 41 30 26 1 332 328 329 32 41 48 355 12 12 12 15 41 36 24 6 354 22 23 29 24 19 17 34 36 29 3 350 349 354 347 349 350 345 341 348 15 15 32 31 34 33 31 20 21
294 14 53 31 46 25 1 23 79 297 358 27 350 94 74 48 11 344 41 25 20 16 353 7 355 26 13 14 357 16 23 25 31 49 20 358 324 315 338 1 5 2 4 15 13 6 4 14 4 13 16 13 14 6
320 20 67 63 56 248 229 105 40 33 39 55 13 51 79 71 359 358 20 359 8 15 23 12 22 17 19 4 355 358 349 358 2 17 16 333 338 357 1 2 1 7 15 19 18 18 17 22 19 15 18 15 10 10
351 20 78 20 334 318 35 81 84 93 120 89 104 337 333 32 35 18 348 340 33 30 357 10 19 1 347 334 357 7 336 326 352 351 339 351 20 20 17 16 16 22 24 23 22 23 22 24 20 18 16 19 21 24
305 68 84 107 16 247 280 100 84 105 86 115 120 174 148 208 251 169 154 46 63 16 349 341 332 345 2 16 8 353 352 346 350 20 48 56 57 42 29 17 16 23 29 31 28 23 21 19 17 8 6 7 17 16